[Iaude] MPEC U152: 2023 UF3 [a=1.30,e=0.24,i=9.7,H=27.2]
    mpec at marsden.cfa.harvard.edu 
    mpec at marsden.cfa.harvard.edu
       
    Sat Oct 21 01:10:01 EDT 2023
    
    
  
M.P.E.C. 2023-U152                             Issued 2023 October 21, 05:08 UT
     The Minor Planet Electronic Circulars contain information on unusual
         minor planets, routine data on comets and natural satellites,
         and occasional editorial announcements.  They are published
    on behalf of Division F of the International Astronomical Union by the
          Minor Planet Center, Smithsonian Astrophysical Observatory,
                          Cambridge, MA 02138, U.S.A.
			  
             Prepared using the Tamkin Foundation Computer Network
                              MPC at CFA.HARVARD.EDU
            URL https://www.minorplanetcenter.net/    ISSN 1523-6714
                                    2023 UF3                                    
Observations:
     K23U03F*1C2023 10 20.22581600 26 43.750-04 43 58.37         18.33GVEU152703
     K23U03F 1C2023 10 20.23106300 27 00.248-04 46 42.56         18.16GVEU152703
     K23U03F 1C2023 10 20.23631500 27 16.592-04 49 27.23         18.43GVEU152703
     K23U03F 1C2023 10 20.24156300 27 33.239-04 52 14.12               VEU152703
     K23U03F KC2023 10 20.30246700 30 42.001-05 23 32.57         18.61GVEU152I52
     K23U03F KC2023 10 20.30298900 30 43.610-05 23 48.34         18.58GVEU152I52
     K23U03F KC2023 10 20.30350600 30 45.212-05 24 04.14         18.63GVEU152I52
     K23U03F KC2023 10 20.30403900 30 46.847-05 24 20.56         18.68GVEU152I52
     K23U03F KC2023 10 20.38915100 35 08.390-06 06 45.14         18.37GVEU152I52
     K23U03F KC2023 10 20.38966400 35 09.953-06 07 00.30         18.15GVEU152I52
     K23U03F KC2023 10 20.39017700 35 11.533-06 07 15.35         18.41GVEU152I52
     K23U03F KC2023 10 20.39069100 35 13.117-06 07 30.36         18.36GVEU152I52
     K23U03F  C2023 10 20.75709 00 54 46.87 -08 44 38.2          18.7 GVEU152M28
     K23U03F  C2023 10 20.75913 00 54 52.56 -08 45 31.6          18.9 GVEU152M28
     K23U03F  C2023 10 20.76135 00 54 58.59 -08 46 29.5          19.0 GVEU152M28
     K23U03F 1C2023 10 20.82399 00 57 34.25 -09 26 04.6          18.8 GVEU152C40
     K23U03F 1C2023 10 20.82867 00 57 46.68 -09 28 00.4          18.8 GVEU152C40
     K23U03F 1C2023 10 20.83329 00 57 58.71 -09 29 57.5          19.1 GVEU152C40
     K23U03F KC2023 10 21.13939901 11 47.59 -11 27 44.5          19.5 VuEU152H21
     K23U03F KC2023 10 21.14099201 11 51.35 -11 28 19.5          19.4 VuEU152H21
     K23U03F KC2023 10 21.14258401 11 55.12 -11 28 54.6          19.5 VuEU152H21
     K23U03F KC2023 10 21.14417701 11 58.89 -11 29 29.4          19.5 VuEU152H21
     K23U03F KC2023 10 21.14576901 12 02.65 -11 30 04.4          19.3 VuEU152H21
     K23U03F KC2023 10 21.14736201 12 06.41 -11 30 39.3          19.2 VuEU152H21
Observer details:
703 Catalina Sky Survey.  Observer D. C. Fuls.  Measurers E. C. Beshore, D.
    Fay, J. B. Fazekas, D. C. Fuls, A. R. Gibbs, A. D. Grauer, H. Groeller, J.
    K. Hogan, R. A. Kowalski, S. M. Larson, G. J. Leonard, D. Rankin, R. L.
    Seaman, F. C. Shelly, K. W. Wierzchos.  0.68-m Schmidt + 10K CCD.
C40 Kuban State University Astrophysical Observatory.  Observers A. Ivanov, A.
    Barcov, V. Ivanov, V. Lysenko, N. Yakovenko, N. Ivanova, N. Gorbunov, G.
    Kurbatov, P. Shchukin, V. Roshchupko.  Measurer A. Ivanov.  0.51-m f/8
    reflector + CCD.
H21 Astronomical Research Observatory, Westfield.  Observer R. Holmes.
    Measurers T. Linder, R. Holmes, L. Horn.  0.81-m f/4.0 astrograph + CCD.
I52 Steward Observatory, Mt. Lemmon Station.  Observer J. B. Fazekas.
    Measurers E. C. Beshore, D. Fay, J. B. Fazekas, D. C. Fuls, A. R. Gibbs,
    A. D. Grauer, H. Groeller, J. K. Hogan, R. A. Kowalski, S. M. Larson, G.
    J. Leonard, D. Rankin, R. L. Seaman, F. C. Shelly, K. W. Wierzchos.  1.0-m
    prime focus + CCD.
M28 Lesedi Telescope-SAAO Observatory, Sutherland.  Observers N. Erasmus, S.
    Potter, C. van Gend, S. Chandra, H. Worters.  Measurers T. Ngwane, N.
    Erasmus.  1.0-m f/8 Reflector + CCD.
Orbital elements:
2023 UF3                                                 Earth MOID = 0.0086 AU
Epoch 2023 Sept. 13.0 TT = JDT 2460200.5                Veres                   
M 353.20987              (2000.0)            P               Q                  
n   0.66731866     Peri.  150.41878     +0.99440437     +0.07653860             
a   1.2969220      Node   205.50146     -0.09259559     +0.96328798             
e   0.2435660      Incl.    9.73686     +0.05085282     +0.25732881             
P   1.48           H   27.22          G   0.15           U   7                  
Residuals in seconds of arc
231020 703  0.3+  0.7-    231020 I52  0.1-  0.1+    231020 C40 (1.8+  1.2+)
231020 703  0.7+  0.1+    231020 I52  0.3-  0.0     231020 C40  0.2+  1.0-
231020 703  1.0-  0.2+    231020 I52  0.2-  0.0     231021 H21  0.0   0.5+
231020 703  2.5+  2.4-    231020 I52  0.2-  0.1+    231021 H21  0.2-  0.5+
231020 I52  0.0   0.1+    231020 M28  2.9-  2.8+    231021 H21  0.2-  0.4+
231020 I52  0.0   0.3+    231020 M28  1.1-  2.6+    231021 H21  0.2-  0.5+
231020 I52  0.1+  0.2+    231020 M28  1.5-  2.6+    231021 H21  0.2-  0.4+
231020 I52  0.0   0.0     231020 C40  0.2+  0.4+    231021 H21  0.2-  0.4+
Ephemeris:
2023 UF3                 a,e,i = 1.30, 0.24, 10                  q = 0.9810
Date    TT    R. A. (2000) Decl.     Delta      r    Elong.  Phase     V
2023 09 21    16 42 39.8 +30 43 50   0.1112  0.9812    74.9    98.8    26.0
...
2023 10 06    17 18 41.1 +31 57 24   0.05332 0.9872    74.6   102.4    24.6
...
2023 10 14    18 42 26.9 +31 49 50   0.02257 0.9970    87.5    91.2    22.2
...
2023 10 20    00 13 27.8 -02 33 48   0.01222 1.0072   155.8    23.9    18.8
2023 10 21    01 05 28.8 -10 27 48   0.01444 1.0091   157.4    22.3    19.1
2023 10 22    01 43 18.5 -15 39 58   0.01738 1.0110   153.6    26.0    19.6
...
2023 10 28    03 14 38.1 -25 10 54   0.03990 1.0240   138.5    40.0    21.9
...
2023 11 05    03 43 54.9 -26 44 25   0.07274 1.0443   134.9    42.3    23.3
...
2023 11 20    03 56 08.5 -25 07 28   0.1374  1.0900   135.2    39.7    24.7
M. P. C. Staff               (C) Copyright 2023 MPC           M.P.E.C. 2023-U152
    
    
More information about the Iaude
mailing list